Hourly Weather Mirbozor

Today, 6 May, Thursday

Time Temperature Precipitation Wind Pressure Humidity
00:00 +22°C° 0 mm 1 mps 719 mmHg 42%
01:00 +20°C° 0 mm 0 mps 719 mmHg 43%
02:00 +22°C° 0 mm 1 mps 719 mmHg 44%
03:00 +21°C° 0 mm 1 mps 719 mmHg 44%
04:00 +21°C° 0 mm 1 mps 720 mmHg 45%
05:00 +22°C° 0 mm 1 mps 720 mmHg 45%
06:00 +21°C° 0 mm 2 mps 721 mmHg 45%
07:00 +23°C° 0 mm 2 mps 721 mmHg 44%
08:00 +23°C° 0 mm 2 mps 721 mmHg 42%
09:00 +24°C° 0 mm 2 mps 722 mmHg 40%
10:00 +25°C° 0 mm 2 mps 722 mmHg 39%
11:00 +26°C° 0 mm 2 mps 722 mmHg 35%
12:00 +27°C° 0 mm 3 mps 722 mmHg 31%
13:00 +29°C° 0 mm 3 mps 722 mmHg 28%
14:00 +28°C° 0 mm 4 mps 722 mmHg 29%
15:00 +28°C° 0 mm 4 mps 722 mmHg 30%
16:00 +27°C° 0 mm 5 mps 722 mmHg 31%
17:00 +26°C° 0 mm 4 mps 722 mmHg 34%
18:00 +25°C° 0 mm 4 mps 722 mmHg 36%
19:00 +24°C° 0 mm 3 mps 722 mmHg 39%
20:00 +24°C° 0 mm 3 mps 722 mmHg 39%
21:00 +24°C° 0 mm 2 mps 722 mmHg 39%
22:00 +24°C° 0 mm 2 mps 722 mmHg 39%
23:00 +23°C° 0 mm 2 mps 722 mmHg 41%

Tomorrow, 7 May, Friday

Time Temperature Precipitation Wind Pressure Humidity
00:00 +23°C° 0 mm 2 mps 722 mmHg 43%
01:00 +21°C° 0 mm 2 mps 722 mmHg 45%
02:00 +21°C° 0 mm 2 mps 722 mmHg 47%
03:00 +20°C° 0 mm 2 mps 722 mmHg 49%
04:00 +20°C° 0 mm 2 mps 722 mmHg 52%
05:00 +21°C° 0 mm 2 mps 722 mmHg 48%
06:00 +23°C° 0 mm 2 mps 723 mmHg 45%
07:00 +24°C° 0 mm 2 mps 723 mmHg 42%
08:00 +26°C° 0 mm 2 mps 723 mmHg 39%
09:00 +27°C° 0 mm 2 mps 723 mmHg 35%
10:00 +28°C° 0 mm 2 mps 723 mmHg 31%
11:00 +29°C° 0 mm 3 mps 723 mmHg 29%
12:00 +30°C° 0 mm 3 mps 723 mmHg 28%
13:00 +31°C° 0 mm 3 mps 722 mmHg 26%
14:00 +31°C° 0 mm 3 mps 722 mmHg 25%
15:00 +31°C° 0 mm 3 mps 722 mmHg 25%
16:00 +31°C° 0 mm 2 mps 722 mmHg 25%
17:00 +29°C° 0 mm 2 mps 722 mmHg 28%
18:00 +28°C° 0 mm 1 mps 722 mmHg 31%
19:00 +26°C° 0 mm 1 mps 722 mmHg 34%
20:00 +26°C° 0 mm 1 mps 722 mmHg 34%
21:00 +25°C° 0 mm 1 mps 721 mmHg 35%
22:00 +25°C° 0 mm 1 mps 721 mmHg 36%
23:00 +25°C° 0 mm 1 mps 721 mmHg 37%

Day after tomorrow, 8 May, Saturday

Time Temperature Precipitation Wind Pressure Humidity
00:00 +24°C° 0 mm 1 mps 721 mmHg 38%
01:00 +24°C° 0 mm 1 mps 721 mmHg 40%
02:00 +23°C° 0 mm 1 mps 721 mmHg 40%
03:00 +23°C° 0 mm 1 mps 721 mmHg 41%
04:00 +23°C° 0 mm 2 mps 721 mmHg 42%
05:00 +24°C° 0 mm 1 mps 721 mmHg 40%
06:00 +25°C° 0 mm 1 mps 722 mmHg 38%
07:00 +27°C° 0 mm 1 mps 722 mmHg 36%
08:00 +28°C° 0 mm 1 mps 722 mmHg 32%
09:00 +30°C° 0 mm 1 mps 722 mmHg 29%
10:00 +31°C° 0 mm 1 mps 722 mmHg 26%
11:00 +32°C° 0 mm 1 mps 722 mmHg 24%
12:00 +33°C° 0 mm 1 mps 722 mmHg 22%
13:00 +34°C° 0 mm 1 mps 721 mmHg 20%
14:00 +34°C° 0 mm 1 mps 721 mmHg 20%
15:00 +34°C° 0 mm 1 mps 721 mmHg 19%
16:00 +34°C° 0 mm 1 mps 720 mmHg 19%
17:00 +34°C° 0 mm 2 mps 720 mmHg 22%
18:00 +31°C° 0 mm 2 mps 720 mmHg 24%
19:00 +30°C° 0 mm 2 mps 720 mmHg 27%
20:00 +29°C° 0 mm 2 mps 720 mmHg 29%
21:00 +28°C° 0 mm 2 mps 720 mmHg 32%
22:00 +27°C° 0 mm 2 mps 720 mmHg 35%
23:00 +26°C° 0 mm 2 mps 720 mmHg 37%

9 May, Sunday

Time Temperature Precipitation Wind Pressure Humidity
00:00 +26°C° 0 mm 2 mps 720 mmHg 38%
01:00 +25°C° 0 mm 2 mps 719 mmHg 40%
02:00 +24°C° 0 mm 3 mps 720 mmHg 42%
03:00 +23°C° 0 mm 4 mps 720 mmHg 44%
04:00 +22°C° 0 mm 5 mps 720 mmHg 46%
05:00 +22°C° 0 mm 5 mps 720 mmHg 46%
06:00 +23°C° 0 mm 4 mps 721 mmHg 46%
07:00 +23°C° 0 mm 4 mps 721 mmHg 46%
08:00 +26°C° 0 mm 3 mps 721 mmHg 42%
09:00 +28°C° 0 mm 3 mps 721 mmHg 37%
10:00 +30°C° 0 mm 2 mps 721 mmHg 32%
11:00 +31°C° 0 mm 2 mps 721 mmHg 30%
12:00 +32°C° 0 mm 2 mps 721 mmHg 27%
13:00 +34°C° 0 mm 2 mps 721 mmHg 25%
14:00 +34°C° 0 mm 3 mps 720 mmHg 25%
15:00 +34°C° 0 mm 4 mps 720 mmHg 25%
16:00 +34°C° 0 mm 5 mps 720 mmHg 25%
17:00 +33°C° 0 mm 5 mps 720 mmHg 30%
18:00 +30°C° 0 mm 5 mps 720 mmHg 35%
19:00 +29°C° 0 mm 5 mps 720 mmHg 40%
20:00 +27°C° 0.1 mm 4 mps 720 mmHg 45%
21:00 +26°C° 0.1 mm 4 mps 720 mmHg 49%
22:00 +25°C° 0.1 mm 3 mps 720 mmHg 54%
23:00 +25°C° 0 mm 3 mps 720 mmHg 56%

10 May, Monday

Time Temperature Precipitation Wind Pressure Humidity
00:00 +24°C° 0 mm 3 mps 720 mmHg 57%
01:00 +24°C° 0 mm 3 mps 719 mmHg 59%
02:00 +22°C° 0 mm 3 mps 719 mmHg 60%
03:00 +22°C° 0 mm 3 mps 719 mmHg 61%
04:00 +21°C° 0 mm 3 mps 719 mmHg 61%
05:00 +22°C° 0 mm 3 mps 719 mmHg 58%
06:00 +24°C° 0 mm 3 mps 720 mmHg 54%
07:00 +25°C° 0 mm 4 mps 720 mmHg 51%
08:00 +27°C° 0 mm 4 mps 720 mmHg 46%
09:00 +29°C° 0 mm 4 mps 720 mmHg 41%
10:00 +30°C° 0 mm 4 mps 720 mmHg 36%
11:00 +31°C° 0 mm 3 mps 720 mmHg 34%
12:00 +33°C° 0 mm 3 mps 719 mmHg 31%
13:00 +34°C° 0 mm 2 mps 719 mmHg 29%
14:00 +32°C° 0.5 mm 4 mps 719 mmHg 36%
15:00 +29°C° 0.5 mm 5 mps 719 mmHg 44%
16:00 +26°C° 0.5 mm 6 mps 719 mmHg 51%
17:00 +25°C° 0.3 mm 5 mps 719 mmHg 54%
18:00 +23°C° 0.3 mm 4 mps 720 mmHg 56%
19:00 +22°C° 0.3 mm 3 mps 720 mmHg 59%
20:00 +22°C° 0 mm 3 mps 720 mmHg 58%
21:00 +23°C° 0 mm 2 mps 720 mmHg 57%
22:00 +21°C° 0 mm 2 mps 720 mmHg 56%
23:00 +21°C° 0 mm 2 mps 720 mmHg 54%

11 May, Tuesday

Time Temperature Precipitation Wind Pressure Humidity
00:00 +21°C° 0 mm 2 mps 720 mmHg 51%
01:00 +20°C° 0 mm 2 mps 720 mmHg 48%
02:00 +20°C° 0 mm 2 mps 720 mmHg 46%
03:00 +20°C° 0 mm 2 mps 720 mmHg 45%
04:00 +20°C° 0 mm 2 mps 720 mmHg 43%
05:00 +21°C° 0 mm 2 mps 720 mmHg 40%
06:00 +23°C° 0 mm 2 mps 721 mmHg 36%
07:00 +24°C° 0 mm 2 mps 721 mmHg 33%
08:00 +25°C° 0 mm 2 mps 721 mmHg 29%
09:00 +27°C° 0 mm 2 mps 722 mmHg 24%
10:00 +28°C° 0 mm 3 mps 722 mmHg 20%
11:00 +29°C° 0 mm 3 mps 722 mmHg 19%
12:00 +30°C° 0 mm 3 mps 721 mmHg 17%
13:00 +32°C° 0 mm 4 mps 721 mmHg 16%
14:00 +32°C° 0 mm 4 mps 721 mmHg 16%
15:00 +32°C° 0 mm 5 mps 721 mmHg 16%
16:00 +32°C° 0 mm 5 mps 721 mmHg 16%
17:00 +29°C° 0 mm 5 mps 721 mmHg 20%
18:00 +27°C° 0 mm 4 mps 721 mmHg 23%
19:00 +26°C° 0 mm 3 mps 721 mmHg 27%
20:00 +25°C° 0 mm 3 mps 721 mmHg 27%
21:00 +24°C° 0 mm 2 mps 721 mmHg 28%
22:00 +23°C° 0 mm 2 mps 721 mmHg 29%
23:00 +23°C° 0 mm 2 mps 720 mmHg 28%
Show more